Temperature
2 1 1 1 0 -0 -1 -2 -2 -3 -3 -2 -2 -2 -2 -2 -2 -2 -2 -2 -2 -2 -1 -1 -1 -1 -0 0 0 1 1 1 1 1 1 1 2 3
1 1 0 -0 -1 -1 -2 -2 -3 -3 -4 -4 -3 -3 -3 -3 -3 -3 -3 -2 -2 -2 -2 -2 -2 -2 -1 -1 -1 -0 -0 0 0 0 1 1 1 2
0 -0 -1 -1 -2 -2 -2 -3 -3 -4 -5 -4 -4 -4 -4 -4 -3 -3 -3 -3 -2 -2 -2 -2 -2 -2 -2 -2 -1 -1 -1 -0 -0 -0 0 0 1 1
-1 -1 -2 -2 -3 -3 -3 -4 -4 -4 -5 -5 -5 -5 -4 -4 -4 -4 -3 -3 -3 -3 -3 -3 -3 -2 -2 -2 -2 -1 -1 -1 -1 -1 -1 -0 -0 0
-2 -2 -3 -3 -3 -4 -4 -4 -4 -5 -5 -5 -5 -5 -5 -4 -4 -4 -4 -4 -3 -3 -3 -3 -3 -3 -3 -2 -2 -2 -2 -1 -1 -1 -1 -1 -1 -0
-3 -3 -4 -4 -4 -4 -5 -5 -5 -5 -5 -5 -5 -5 -5 -5 -4 -4 -4 -4 -4 -4 -3 -3 -3 -3 -3 -3 -3 -3 -2 -2 -2 -2 -2 -2 -1 -1
-3 -4 -4 -4 -5 -5 -5 -5 -5 -5 -5 -5 -5 -5 -5 -5 -5 -5 -5 -4 -4 -4 -4 -4 -3 -3 -3 -3 -3 -3 -3 -2 -2 -2 -2 -2 -2 -2
-4 -4 -4 -5 -5 -5 -5 -5 -5 -5 -5 -5 -5 -5 -5 -5 -5 -5 -5 -5 -5 -4 -4 -4 -4 -4 -3 -3 -3 -3 -3 -3 -3 -3 -3 -3 -2 -2
-5 -5 -5 -5 -5 -5 -5 -5 -5 -5 -6 -5 -5 -5 -5 -5 -5 -5 -5 -5 -5 -5 -5 -5 -4 -4 -4 -3 -3 -3 -3 -3 -3 -3 -3 -3 -3 -3
-5 -5 -5 -5 -5 -6 -6 -6 -6 -6 -5 -6 -6 -5 -5 -5 -5 -5 -5 -5 -5 -5 -5 -5 -4 -4 -4 -4 -3 -3 -3 -3 -3 -3 -3 -3 -3 -3
-5 -5 -6 -6 -6 -6 -6 -6 -6 -6 -6 -6 -6 -6 -5 -5 -5 -5 -5 -5 -5 -5 -5 -5 -5 -4 -4 -4 -3 -3 -3 -3 -4 -4 -3 -3 -3 -3
-6 -6 -6 -6 -6 -6 -6 -6 -6 -6 -6 -6 -6 -6 -6 -6 -6 -6 -6 -6 -6 -6 -5 -5 -5 -5 -5 -4 -4 -3 -3 -3 -4 -4 -4 -4 -4 -4
-6 -6 -6 -6 -6 -6 -6 -6 -6 -6 -6 -6 -6 -6 -6 -6 -6 -6 -6 -6 -6 -6 -6 -6 -5 -5 -5 -5 -5 -4 -4 -4 -4 -4 -4 -4 -4 -4
-7 -6 -6 -6 -6 -6 -6 -6 -6 -7 -7 -7 -7 -7 -7 -7 -7 -7 -7 -7 -7 -7 -6 -6 -6 -6 -6 -6 -5 -5 -5 -5 -4 -4 -4 -4 -4 -4
-7 -7 -7 -6 -6 -6 -7 -7 -7 -7 -7 -7 -7 -7 -7 -7 -7 -7 -7 -7 -7 -6 -6 -6 -6 -6 -6 -6 -6 -6 -5 -5 -5 -5 -5 -5 -5 -5
-7 -7 -7 -7 -7 -7 -7 -7 -7 -8 -8 -8 -8 -8 -8 -8 -7 -7 -7 -7 -7 -6 -6 -6 -6 -6 -6 -6 -6 -6 -6 -6 -5 -5 -5 -5 -5 -5
-7 -7 -7 -7 -7 -7 -7 -8 -8 -8 -8 -8 -8 -8 -8 -8 -8 -8 -8 -8 -8 -7 -7 -6 -6 -6 -6 -6 -6 -6 -6 -6 -6 -6 -6 -6 -5 -5
-7 -7 -8 -8 -8 -8 -8 -8 -8 -8 -8 -9 -9 -9 -9 -9 -8 -8 -8 -8 -8 -8 -7 -7 -7 -7 -7 -7 -6 -6 -6 -6 -6 -6 -6 -6 -6 -6
-8 -8 -8 -9 -9 -9 -9 -9 -9 -8 -9 -9 -9 -9 -9 -9 -9 -9 -8 -8 -8 -8 -8 -8 -7 -7 -7 -7 -7 -6 -6 -6 -6 -7 -6 -6 -6 -6
-9 -9 -9 -9 -9 -9 -9 -9 -9 -9 -9 -9 -9 -9 -9 -9 -9 -9 -9 -9 -9 -8 -8 -8 -8 -8 -8 -8 -7 -7 -7 -7 -7 -7 -7 -7 -7 -6
-9 -10 -10 -10 -9 -9 -9 -9 -9 -9 -9 -9 -9 -9 -9 -9 -9 -9 -9 -9 -9 -9 -9 -8 -8 -8 -8 -8 -8 -7 -7 -7 -7 -7 -7 -7 -7 -7
-10 -10 -10 -10 -10 -10 -10 -10 -10 -9 -9 -9 -9 -9 -10 -10 -10 -10 -10 -10 -9 -9 -9 -9 -8 -8 -8 -8 -8 -8 -7 -7 -7 -7 -7 -7 -7 -7
-11 -11 -11 -10 -10 -10 -10 -10 -10 -10 -10 -10 -10 -10 -10 -10 -10 -10 -10 -10 -10 -9 -9 -9 -9 -9 -9 -8 -8 -8 -8 -8 -8 -8 -8 -8 -8 -7
Wind_Speed
7 8 6 6 6 6 6 6 9 16 14 6 5 6 9 13 19 19 17 24 28 29 29 29 29 29 29 29 28 28 27 27 27 28 29 30 31 32
7 8 8 7 6 6 6 6 7 11 16 6 6 7 9 13 22 20 18 27 29 29 30 30 30 30 30 29 29 28 28 28 28 29 29 30 30 31
9 9 10 9 7 7 6 7 8 9 16 14 7 7 9 12 13 15 18 17 19 27 28 29 29 29 29 29 29 29 29 28 29 29 29 29 30 30
10 10 11 10 9 8 7 9 9 9 13 19 12 8 10 10 12 13 13 15 13 23 27 28 28 28 28 28 27 27 27 27 27 27 27 28 29 29
11 11 11 10 11 9 10 10 10 11 11 14 15 10 9 9 10 12 13 11 13 19 23 24 25 26 26 26 26 26 26 25 25 25 25 26 27 28
11 11 11 11 12 12 11 11 11 11 11 13 14 12 9 8 8 9 10 8 10 11 16 19 22 25 25 25 25 25 24 24 24 24 24 24 25 26
10 10 11 15 18 16 14 11 10 10 11 12 13 12 10 8 8 8 11 9 9 9 10 10 10 9 12 19 22 23 24 24 24 23 23 23 23 24
10 10 11 15 18 23 25 24 21 15 13 13 14 14 13 11 10 10 11 12 10 5 7 9 7 9 8 7 18 23 23 23 23 23 23 23 23 23
10 10 12 13 18 11 19 23 22 25 24 18 16 16 15 12 12 14 13 14 14 7 7 11 8 10 9 12 22 23 23 23 22 22 22 22 22 22
10 11 12 12 13 15 13 13 13 14 17 14 13 15 15 14 14 15 15 14 13 10 9 11 9 9 10 8 19 23 23 22 21 21 21 21 20 20
11 11 13 12 20 25 17 14 14 12 18 23 24 23 25 25 20 11 10 11 12 7 6 6 7 8 8 8 13 20 21 20 20 19 19 19 19 17
10 10 18 19 23 25 16 13 15 13 12 13 15 16 14 15 19 12 9 10 10 7 5 5 6 5 5 5 6 6 8 13 17 17 17 17 16 8
10 9 10 22 25 26 23 13 16 17 10 9 9 8 8 7 8 8 7 8 10 8 4 4 5 5 5 4 3 4 4 4 5 7 11 13 13 9
11 9 12 23 25 25 19 18 23 18 6 7 7 7 7 7 7 7 8 8 9 11 9 8 7 6 6 6 4 3 3 4 4 4 4 7 8 10
12 20 23 26 23 16 17 21 16 7 6 7 8 7 6 6 7 6 7 8 9 9 9 10 9 8 7 7 4 3 3 3 4 4 3 3 3 3
13 17 22 20 16 15 14 11 6 6 7 7 7 7 6 5 6 5 6 6 6 6 6 7 7 7 7 6 6 5 4 3 2 3 3 2 2 3
14 9 6 6 6 6 7 7 6 6 6 6 6 7 7 6 6 5 5 5 5 6 5 4 4 5 6 5 4 5 4 4 3 2 2 2 2 2
17 8 7 7 8 8 8 7 6 6 6 6 6 6 7 7 7 5 5 5 5 5 5 4 3 2 2 4 7 6 4 4 3 3 3 2 2 2
11 7 8 8 9 8 8 8 7 7 6 6 6 6 6 6 6 6 5 5 5 5 4 3 3 2 3 4 4 5 4 3 3 3 3 3 3 2
7 8 9 9 9 8 8 8 8 6 6 6 6 6 6 6 6 6 5 5 5 5 4 3 3 3 4 4 3 3 5 4 3 3 3 2 1 1
9 9 9 9 9 9 9 8 8 7 7 6 6 6 6 6 6 6 6 9 7 4 5 5 5 6 3 2 2 2 2 5 5 4 3 3 2 1
9 9 9 9 9 9 8 8 8 7 7 7 7 6 6 6 7 7 6 6 6 5 6 5 4 3 2 3 4 4 3 2 4 7 7 6 4 4
10 10 10 10 9 9 8 9 9 8 7 7 7 7 6 6 6 6 7 7 6 6 5 4 3 2 3 4 4 3 4 3 2 3 3 7 8 6
Wind_Direction
276 274 271 267 264 263 263 266 284 298 296 268 264 259 268 274 279 281 273 279 284 285 284 284 284 283 282 281 280 278 275 274 274 275 276 276 276 275
276 275 272 271 266 264 261 261 259 279 290 282 271 267 273 283 286 286 282 285 286 285 285 283 282 281 280 279 278 277 275 273 273 273 273 273 273 273
283 281 276 273 270 266 261 262 264 268 285 292 274 268 266 270 278 279 280 279 279 282 283 283 282 281 279 277 276 275 274 273 272 272 272 273 274 273
284 282 280 280 272 268 266 267 270 268 277 289 291 278 266 267 270 272 279 279 274 280 283 283 282 281 280 278 276 275 274 273 272 271 272 273 274 275
278 277 278 277 277 274 270 273 274 276 272 280 288 284 276 272 272 273 272 272 274 278 281 282 282 282 282 281 280 278 277 275 272 270 270 272 274 274
273 271 271 270 272 274 277 272 273 274 274 278 284 286 280 270 267 274 279 268 269 274 276 278 279 281 281 282 283 282 281 278 275 272 271 271 274 274
273 268 269 277 282 285 286 280 277 279 282 285 287 289 285 281 276 274 279 277 268 261 264 266 269 268 272 276 279 280 279 277 275 273 272 272 273 273
282 279 278 284 287 291 293 294 292 289 289 287 288 286 287 282 280 279 281 282 282 239 246 262 252 259 259 253 268 273 274 273 271 270 270 271 271 272
281 283 289 289 295 286 288 290 289 288 287 286 286 285 285 281 279 278 274 274 275 263 259 272 260 262 260 263 271 272 272 272 270 269 268 268 269 271
276 277 280 281 281 286 279 277 274 275 278 279 272 273 273 273 268 270 274 276 272 264 251 268 266 263 264 254 265 268 270 270 270 270 269 268 269 270
277 276 281 280 285 292 293 287 285 281 285 285 284 285 285 289 289 286 280 282 283 272 231 246 262 265 263 260 260 265 266 267 268 268 269 269 269 269
280 274 284 288 292 295 292 288 290 288 283 286 288 289 288 287 290 283 278 281 282 279 239 236 256 258 268 256 253 258 264 270 272 273 273 272 272 269
288 283 277 291 293 294 295 291 291 295 291 292 292 287 283 278 275 270 262 265 274 273 260 250 258 248 254 272 269 247 238 249 264 273 279 278 275 271
292 286 282 291 293 296 299 296 299 306 304 298 292 287 286 284 280 278 272 263 260 267 268 259 261 258 258 261 260 257 251 247 243 251 253 274 279 275
289 290 293 298 301 301 297 299 304 303 296 291 290 287 279 278 284 287 283 276 270 266 263 254 254 257 253 257 253 239 255 259 235 236 242 243 247 254
290 289 293 295 296 293 294 297 289 277 284 282 286 286 285 285 287 290 296 301 294 288 270 255 252 249 252 251 251 249 228 239 249 228 232 243 238 230
297 292 285 287 281 278 277 273 269 274 284 280 284 290 294 295 294 292 288 296 294 297 298 293 269 248 243 248 255 248 236 235 234 221 216 246 248 232
306 297 293 289 286 286 285 282 275 272 273 277 282 285 289 293 296 294 289 291 290 290 290 290 294 285 266 251 234 242 235 233 228 212 203 224 252 244
301 288 285 285 284 281 279 277 277 272 269 273 277 279 283 286 290 292 290 289 287 283 281 278 272 259 263 269 268 228 219 222 207 205 207 209 227 234
279 280 281 280 278 277 276 275 273 271 266 266 268 270 273 278 283 284 282 281 285 284 285 281 263 251 248 254 257 258 224 212 206 208 202 192 214 235
283 280 279 279 276 275 274 272 268 268 265 263 264 264 264 268 273 275 275 284 287 275 275 273 265 276 266 243 249 258 256 227 210 198 179 169 169 172
282 281 281 279 275 272 271 269 267 264 261 259 260 260 259 260 266 269 269 271 269 262 263 268 274 274 236 235 246 250 255 260 234 224 208 191 172 185
282 281 281 280 276 271 268 266 263 265 259 256 258 257 255 259 258 258 261 261 262 262 261 264 264 251 240 232 237 239 235 227 213 213 224 220 219 217
Height
1481 1478 1475 1472 1469 1466 1462 1459 1453 1441 1434 1436 1436 1435 1434 1431 1429 1426 1424 1422 1420 1419 1417 1416 1415 1414 1413 1413 1413 1413 1413 1413 1413 1413 1413 1413 1413 1414
1474 1470 1466 1463 1460 1457 1454 1451 1447 1440 1428 1424 1426 1425 1423 1421 1419 1416 1414 1412 1410 1408 1406 1405 1404 1403 1403 1403 1403 1403 1403 1403 1403 1404 1403 1404 1404 1405
1466 1462 1458 1455 1451 1448 1445 1441 1438 1433 1423 1414 1416 1415 1413 1411 1408 1406 1404 1401 1399 1397 1396 1395 1394 1393 1393 1392 1392 1393 1393 1393 1394 1394 1394 1394 1394 1395
1457 1454 1450 1447 1443 1440 1436 1432 1428 1425 1418 1409 1406 1405 1404 1402 1399 1397 1394 1392 1390 1388 1386 1385 1384 1383 1383 1383 1383 1383 1383 1383 1383 1384 1384 1384 1385 1385
1450 1446 1442 1438 1434 1431 1427 1423 1419 1416 1411 1405 1399 1397 1395 1394 1391 1388 1386 1384 1382 1380 1378 1376 1375 1374 1373 1373 1373 1373 1373 1373 1373 1374 1374 1374 1375 1375
1442 1438 1434 1430 1426 1422 1418 1415 1411 1408 1404 1399 1393 1390 1388 1386 1384 1380 1377 1375 1373 1372 1370 1368 1367 1365 1364 1364 1363 1363 1363 1363 1363 1364 1364 1365 1365 1366
1433 1430 1426 1422 1418 1415 1412 1408 1405 1401 1397 1392 1387 1383 1380 1379 1377 1374 1370 1367 1364 1363 1360 1359 1358 1356 1355 1355 1354 1353 1353 1353 1354 1354 1355 1356 1356 1357
1425 1421 1417 1414 1410 1407 1404 1401 1398 1394 1389 1385 1380 1377 1373 1371 1369 1366 1363 1359 1355 1355 1353 1350 1350 1347 1346 1346 1345 1345 1344 1344 1344 1345 1346 1347 1347 1348
1417 1413 1409 1405 1402 1398 1394 1391 1388 1386 1383 1379 1373 1369 1366 1364 1361 1357 1355 1352 1348 1347 1346 1341 1341 1338 1338 1337 1337 1336 1336 1336 1336 1337 1338 1338 1339 1340
1409 1405 1400 1396 1393 1389 1385 1381 1378 1376 1373 1370 1365 1361 1358 1355 1353 1349 1346 1342 1339 1338 1338 1334 1332 1331 1330 1329 1329 1328 1328 1328 1329 1329 1330 1331 1331 1332
1401 1397 1393 1388 1385 1382 1379 1374 1369 1366 1364 1361 1357 1353 1350 1348 1345 1342 1338 1335 1331 1329 1329 1327 1324 1323 1322 1320 1320 1321 1321 1321 1321 1322 1323 1323 1324 1325
1391 1388 1385 1382 1378 1375 1371 1366 1361 1357 1354 1350 1347 1344 1341 1338 1336 1334 1331 1328 1324 1322 1321 1320 1318 1317 1315 1313 1313 1314 1314 1315 1315 1315 1316 1317 1318 1318
1383 1379 1376 1373 1370 1367 1363 1359 1354 1351 1346 1342 1338 1335 1333 1330 1328 1326 1323 1321 1318 1316 1315 1314 1312 1311 1310 1308 1308 1308 1309 1309 1309 1309 1310 1311 1311 1312
1376 1372 1368 1365 1362 1358 1355 1351 1347 1344 1339 1335 1331 1328 1326 1323 1320 1318 1316 1314 1312 1310 1308 1307 1306 1305 1305 1303 1303 1302 1303 1304 1304 1304 1305 1305 1306 1307
1369 1364 1361 1357 1353 1349 1346 1343 1340 1336 1332 1329 1325 1322 1320 1317 1314 1312 1309 1307 1305 1303 1302 1300 1300 1299 1299 1298 1298 1298 1298 1298 1299 1299 1300 1301 1301 1302
1360 1356 1352 1349 1345 1342 1338 1335 1332 1329 1326 1323 1320 1317 1314 1312 1309 1307 1304 1301 1299 1297 1296 1295 1294 1293 1293 1293 1293 1293 1294 1294 1294 1295 1296 1297 1297 1298
1353 1348 1344 1340 1337 1334 1331 1328 1325 1323 1320 1318 1315 1312 1309 1307 1304 1302 1300 1297 1295 1293 1291 1291 1290 1289 1289 1289 1289 1289 1289 1290 1291 1292 1292 1293 1294 1295
1346 1340 1336 1333 1330 1326 1324 1321 1318 1316 1314 1312 1309 1307 1305 1302 1300 1298 1296 1294 1291 1290 1288 1287 1286 1285 1285 1285 1285 1285 1285 1286 1287 1288 1289 1290 1291 1292
1337 1333 1329 1326 1323 1320 1317 1314 1312 1310 1308 1306 1304 1302 1300 1297 1295 1293 1291 1290 1288 1286 1285 1284 1283 1282 1282 1281 1281 1282 1283 1283 1284 1285 1286 1287 1288 1290
1329 1325 1322 1318 1316 1313 1310 1308 1305 1303 1301 1299 1297 1296 1294 1292 1290 1289 1287 1285 1283 1282 1281 1280 1280 1279 1279 1279 1278 1278 1279 1280 1281 1282 1283 1284 1286 1288
1321 1318 1314 1311 1308 1306 1303 1301 1298 1296 1294 1293 1291 1290 1288 1286 1285 1283 1282 1280 1279 1278 1276 1276 1276 1276 1275 1275 1275 1274 1276 1277 1278 1279 1280 1282 1284 1285
1313 1310 1307 1304 1301 1298 1296 1294 1291 1289 1287 1286 1284 1283 1282 1280 1279 1277 1276 1275 1274 1273 1272 1271 1271 1271 1271 1271 1271 1271 1272 1274 1275 1276 1278 1279 1281 1283
1305 1302 1299 1296 1293 1291 1289 1286 1284 1282 1280 1279 1277 1276 1275 1273 1272 1271 1270 1269 1268 1267 1267 1266 1266 1266 1266 1266 1267 1267 1268 1270 1271 1273 1275 1276 1278 1281